DW9677 Weather Reports


Display with metric or nautical units.
time (UTC)temp
F
wind
direction
speed
MPH
gust
MPH
rain 1hr
in
rain 24hr
in
rain mn
in
humidity
%
barometer
mb
20221003084546 51 46 0.0 0.0 0.00 1.62 0.10 75 1027.8
20221003083048 50 46 0.0 0.0 0.00 1.62 0.10 70 1027.7
20221003081545 50 45 0.0 0.0 0.00 1.62 0.10 69 1027.7
20221003080044 50 46 0.0 0.0 0.00 1.62 0.10 67 1027.6
20221003074541 49 46 0.0 0.0 0.00 1.69 0.10 66 1027.4
20221003073048 49 46 0.0 0.0 0.00 1.69 0.10 65 1027.4
20221003071539 48 46 0.0 0.0 0.00 1.69 0.10 68 1027.3
20221003070038 47 45 0.0 0.0 0.00 1.69 0.10 70 1027.2
20221003064536 46 46 0.0 0.0 0.00 1.73 0.10 70 1027.1
20221003063035 45 46 0.0 0.0 0.00 1.73 0.10 74 1027.0
20221003061538 45 46 0.0 0.0 0.00 1.73 0.10 78 1026.7
20221003060031 45 45 0.0 0.0 0.00 1.73 0.10 80 1026.4
20221003054528 45 46 0.0 0.0 0.00 1.74 0.10 81 1026.4
20221003053029 46 46 0.0 0.0 0.00 1.74 0.10 80 1026.3
20221003051520 47 46 0.0 0.0 0.00 1.74 0.10 79 1026.1
20221003050027 48 45 0.0 0.0 0.00 1.74 0.10 76 1026.1
20221003044519 48 46 0.0 0.0 0.00 1.74 0.10 74 1026.1
20221003043026 48 46 0.0 0.0 0.00 1.74 0.10 75 1026.1
20221003041529 48 45 0.0 0.0 0.00 1.74 0.10 75 1026.1
20221003040016 48 46 0.0 0.0 0.00 1.74 0.10 74 1026.1
20221003034517 48 45 0.0 0.0 0.00 1.74 0.10 75 1026.0
20221003033014 47 46 0.0 0.0 0.00 1.74 0.10 75 1025.7
20221003031510 47 46 0.0 0.0 0.00 1.74 0.10 76 1025.5
20221003030009 47 45 0.0 0.0 0.00 1.74 0.10 76 1025.5
20221003024508 47 45 0.0 0.0 0.00 1.74 0.10 77 1025.3
20221003021507 47 45 0.0 0.0 0.00 1.74 0.10 81 1025.2
20221003020005 48 45 0.0 0.0 0.00 1.74 0.10 80 1025.0
20221003014600 49 45 0.0 0.0 0.00 1.74 0.10 78 1024.8
20221003013104 49 45 0.0 0.0 0.00 1.74 0.10 78 1024.7
20221003011556 49 45 0.0 0.0 0.00 1.74 0.10 78 1024.5
20221003010054 50 46 0.0 0.0 0.01 1.74 0.10 77 1024.6
20221003004554 50 46 0.0 0.0 0.01 1.74 0.10 76 1024.6
20221003003058 50 46 0.0 0.0 0.01 1.74 0.10 76 1024.5
20221003001551 50 45 0.0 0.0 0.01 1.74 0.10 76 1024.3
20221003000057 50 45 0.0 0.0 0.01 1.73 0.09 76 1024.3
20221002234600 51 45 0.0 0.0 0.01 1.73 0.09 76 1024.1
20221002233050 51 45 0.0 0.0 0.02 1.73 0.09 76 1024.0
20221002231544 51 45 0.0 0.0 0.03 1.73 0.09 76 1024.0
20221002230046 51 46 0.0 0.0 0.08 1.72 0.08 76 1023.8
20221002224542 51 46 0.0 0.0 0.11 1.72 0.08 76 1023.6
20221002223041 51 46 0.0 0.0 0.13 1.71 0.07 76 1023.6
20221002221540 51 46 0.0 0.0 0.13 1.70 0.06 76 1023.5
20221002220113 51 46 0.0 0.0 0.08 1.64 0.00 77 1023.4
20221002214558 51 45 0.0 0.0 0.06 1.63 1.61 77 1023.3
20221002214513 51 46 0.0 0.0 0.06 1.63 1.61 76 1023.3
20221002204549 51 45 0.0 0.0 0.13 1.57 1.55 79 1022.7
20221002203048 51 46 0.0 0.0 0.19 1.57 1.55 79 1022.2
20221002194548 51 45 0.0 0.0 0.23 1.44 1.42 80 1021.6
20221002193048 52 46 0.0 0.0 0.18 1.38 1.36 80 1021.7
20221002191529 52 46 0.0 0.0 0.11 1.29 1.27 79 1021.6
20221002190029 52 46 0.0 0.0 0.08 1.22 1.20 79 1021.3
20221002184529 52 45 0.0 0.0 0.17 1.21 1.19 80 1021.3
20221002183029 52 46 0.0 0.0 0.25 1.20 1.18 80 1021.3
20221002181528 52 46 0.0 0.0 0.32 1.18 1.15 81 1021.5
20221002174506 52 45 0.0 1.0 0.26 1.03 1.01 82 1021.0
20221002173007 52 46 0.0 0.0 0.24 0.95 0.93 83 1020.9
20221002171552 52 46 0.0 0.0 0.21 0.86 0.84 84 1020.2
20221002170052 52 45 0.0 0.0 0.28 0.82 0.80 85 1019.9
20221002164543 53 46 0.0 0.0 0.41 0.77 0.75 86 1019.8
20221002163045 53 46 0.0 0.0 0.41 0.71 0.69 86 1019.8
20221002161649 54 45 0.0 1.0 0.35 0.65 0.63 87 1019.8
20221002160008 55 46 0.0 0.0 0.23 0.53 0.51 88 1019.3
20221002153022 59 45 0.0 0.0 0.00 0.30 0.28 84 1018.5
20221002151520 59 46 0.0 0.0 0.00 0.30 0.28 85 1018.2
20221002150019 59 46 0.0 0.0 0.00 0.30 0.28 85 1018.3
20221002144517 59 46 0.0 0.0 0.00 0.30 0.28 86 1018.6
20221002143016 59 46 0.0 1.0 0.01 0.30 0.28 87 1018.7
20221002141515 59 46 0.0 1.0 0.04 0.30 0.28 88 1018.9
20221002140015 59 45 0.0 4.0 0.08 0.30 0.28 87 1019.0
20221002134513 58 45 0.0 1.0 0.13 0.35 0.28 86 1018.9
20221002133015 58 46 0.0 1.0 0.14 0.34 0.27 87 1019.1
20221002131512 59 45 0.0 3.0 0.11 0.31 0.24 88 1019.1
20221002130011 60 45 0.0 3.0 0.07 0.27 0.20 89 1019.0
20221002124512 61 45 0.0 7.0 0.03 0.28 0.15 88 1018.8
20221002123011 62 45 0.0 4.0 0.01 0.26 0.13 87 1018.9
20221002121510 62 45 0.0 3.0 0.01 0.26 0.13 87 1018.9
20221002120005 63 46 0.0 3.0 0.01 0.26 0.13 86 1019.3
20221002114506 63 46 0.0 3.0 0.00 0.28 0.12 84 1019.5
20221002113012 63 46 1.0 4.0 0.00 0.28 0.12 85 1019.6
20221002111607 63 45 0.0 8.0 0.00 0.28 0.12 87 1019.7
20221002110056 60 46 0.0 3.0 0.00 0.28 0.12 89 1019.8
20221002104551 58 46 0.0 1.0 0.00 0.34 0.12 83 1019.8
20221002103050 56 46 0.0 1.0 0.00 0.34 0.12 86 1020.1
20221002101557 56 46 0.0 2.0 0.00 0.34 0.12 84 1020.3
20221002100042 55 46 0.0 2.0 0.00 0.34 0.12 83 1020.5